sat.trackr.live / text

‹ back to catalog

BLACK KITE-1

NORAD 66741 · 2025-276CD

PAYLOAD ACTIVE UNKNOWN

§ Identity

Operator
Country
ROC
Launch date
2025-11-28
Launch site
AFWTR
Launch vehicle
Mass (kg)
RCS (m²)

External: N2YO · Heavens-Above · Gunter

§ Orbital elements

Epoch: 2026-05-25T03:25:47.097408Z

Period
94.73 min
Inclination
97.4250°
Eccentricity
0.0007138
Mean motion
15.20167598 rev/d
Perigee alt
500.4 km
Apogee alt
510.2 km
Semi-major
6,883.5 km
B*
3.5941e-4
RAAN
219.2167°
Arg perigee
78.1924°
Mean anomaly
282.0111°
Rev number
2,422

§ Raw data

BLACK KITE-11 66741U 25276CD  26145.14290622  .00007718  00000+0  35941-3 0  99972 66741  97.4250 219.2167 0007138  78.1924 282.0111 15.20167598 24220

JSON: /api/v1/satellites/66741 · /tle

For live sub-satellite position, see the globe view (requires WebGL).

§ Visibility from observer

Set your observer location to see the next 7 days of passes ≥ 10°. The values pass through the URL so the page stays shareable.

No JS? Fill the form by hand. The geolocation button needs JavaScript.

§ Radio — SatNOGS DB

ModeDescriptionDownlinkUplink
FM S-band telemetry 2.288 GHz

1 transmitter · refreshed weekly from db.satnogs.org